Fort Bragg, NC

6:40 AM EST on December 11, 2017 (GMT -0500)
Simmons Army Air Field

Weather History for KFBG - February, 2012

Change the Weather History Date:

Thursday, February 16, 2012

  Actual Average Record
Temperature  
Mean Temperature 48 °F -  
Max Temperature 57 °F 56 °F 78 °F (2001)
Min Temperature 40 °F 35 °F 22 °F (2015)
Degree Days  
Heating Degree Days 16    
Moisture  
Dew Point 50 °F    
Average Humidity 94    
Maximum Humidity 100    
Minimum Humidity 66    
Precipitation  
Precipitation 0.16 in - - ()
Sea Level Pressure  
Sea Level Pressure 30.08 in    
Wind  
Wind Speed 3 mph (West)    
Max Wind Speed 12 mph    
Max Gust Speed -    
Visibility 7 miles    
Events Fog , Rain    
Averages and records for this station are not official NWS values.
T = Trace of Precipitation, MM = Missing Value Source: NWS Daily Summary

Daily Weather History Graph

Daily Weather History Graph

Search for Another Location

Airport or City:

Trip Planner

Search our weather history database for the weather conditions in past years. The results will help you decide how hot, cold, wet, or windy it might be!

Date:

Astronomy

Feb. 16, 2012 Rise Set
Actual Time 7:01 AM EST 5:58 PM EST
Civil Twilight 6:35 AM EST 6:24 PM EST
Nautical Twilight 6:05 AM EST 6:54 PM EST
Astronomical Twilight 5:36 AM EST 7:23 PM EST
Moon 2:47 AM EST (2/16) 12:56 PM EST (2/16)
Length of Visible Light 11h 49m
Length of Day
10h 57m
Waning Crescent, 28% of the Moon is Illuminated
Feb 16
Waning Crescent
Feb 21
New
Feb 29
First Quarter
Mar 8
Full
Mar 14
Last Quarter

Hourly Weather History & Observations

Time (EST) Temp. Windchill Dew Point Humidity Pressure Visibility Wind Dir Wind Speed Gust Speed Precip Events Conditions
12:55 AM 44.1 °F - 37.2 °F 77% 30.28 in 10.0 mi Calm Calm - N/A   Mostly Cloudy
1:55 AM 44.2 °F - 37.8 °F 78% 30.26 in 10.0 mi Calm Calm - N/A   Mostly Cloudy
2:55 AM 42.3 °F - 37.8 °F 84% 30.25 in 10.0 mi Calm Calm - N/A   Clear
3:55 AM 40.6 °F - 36.9 °F 86% 30.24 in 10.0 mi Calm Calm - N/A   Partly Cloudy
4:55 AM 40.1 °F - 36.3 °F 86% 30.24 in 10.0 mi Calm Calm - N/A   Mostly Cloudy
5:55 AM 41.4 °F - 37.4 °F 86% 30.24 in 10.0 mi Calm Calm - N/A   Mostly Cloudy
6:55 AM 44.6 °F - 39.9 °F 84% 30.26 in 10.0 mi Calm Calm - N/A   Overcast
7:55 AM 44.4 °F - 40.6 °F 87% 30.25 in 9.0 mi Calm Calm - N/A   Scattered Clouds
8:55 AM 46.2 °F 44.1 °F 40.5 °F 80% 30.25 in 10.0 mi ENE 4.6 mph - N/A   Mostly Cloudy
9:55 AM 48.0 °F - 38.8 °F 71% 30.20 in 10.0 mi ESE 5.8 mph - N/A   Partly Cloudy
10:23 AM 50.0 °F - 39.2 °F 66% 30.19 in 10.0 mi ESE 4.6 mph - N/A Rain Light Rain
10:55 AM 48.7 °F - 42.3 °F 78% 30.19 in 5.0 mi SSE 8.1 mph - 0.00 in Rain Light Rain
11:55 AM 49.3 °F - 45.1 °F 86% 30.14 in 10.0 mi SSE 8.1 mph - 0.03 in Rain Light Rain
12:00 PM 50.0 °F - 46.4 °F 87% 30.13 in 10.0 mi SSE 9.2 mph - N/A   Clear
12:22 PM 51.8 °F - 46.4 °F 82% 30.12 in 10.0 mi SSE 6.9 mph - N/A Rain Light Rain
12:47 PM 51.8 °F - 48.2 °F 88% 30.11 in 10.0 mi South 5.8 mph - N/A Rain Light Rain
12:55 PM 52.3 °F - 48.7 °F 88% 30.11 in 10.0 mi SSE 5.8 mph - 0.00 in Rain Light Rain
1:00 PM 51.8 °F - 50.0 °F 94% 30.10 in 10.0 mi SSE 5.8 mph - N/A   Mostly Cloudy
1:07 PM 53.6 °F - 50.0 °F 88% 30.10 in 10.0 mi SSE 5.8 mph - N/A Rain Light Rain
1:15 PM 53.6 °F - 50.0 °F 88% 30.09 in 10.0 mi Variable 3.5 mph - N/A   Mostly Cloudy
1:19 PM 53.6 °F - 50.0 °F 88% 30.09 in 10.0 mi Variable 4.6 mph - N/A Rain Light Rain
1:31 PM 53.6 °F - 51.8 °F 94% 30.09 in 9.0 mi Calm Calm - N/A Rain Light Rain
1:42 PM 53.6 °F - 51.8 °F 94% 30.08 in 5.0 mi SSE 6.9 mph - N/A Rain Rain
1:46 PM 53.6 °F - 51.8 °F 94% 30.07 in 2.0 mi SE 6.9 mph - N/A Rain Heavy Rain
1:55 PM 53.8 °F - 52.3 °F 95% 30.07 in 1.8 mi SSE 4.6 mph - 0.13 in Rain Rain
1:56 PM 53.6 °F - 51.8 °F 94% 30.06 in 3.0 mi Variable 3.5 mph - N/A Rain Light Rain
2:08 PM 53.6 °F - 53.6 °F 100% 30.05 in 9.0 mi SE 4.6 mph - N/A   Overcast
2:18 PM 53.6 °F - 53.6 °F 100% 30.05 in 10.0 mi SE 3.5 mph - N/A   Overcast
2:34 PM 55.4 °F - 53.6 °F 94% 30.04 in 10.0 mi SSE 4.6 mph - N/A   Overcast
2:47 PM 55.4 °F - 55.4 °F 100% 30.04 in 10.0 mi SE 5.8 mph - N/A   Overcast
2:57 PM 55.4 °F - 55.4 °F 100% 30.03 in 10.0 mi Variable 3.5 mph - N/A   Overcast
3:28 PM 55.4 °F - 55.4 °F 100% 30.01 in 10.0 mi South 6.9 mph - N/A   Overcast
3:55 PM 55.6 °F - 55.2 °F 99% 30.01 in 10.0 mi South 5.8 mph - 0.00 in   Overcast
4:55 PM 56.1 °F - 55.8 °F 99% 29.99 in 9.0 mi Calm Calm - N/A   Overcast
5:47 PM 57.2 °F - 55.4 °F 94% 30.01 in 7.0 mi WNW 8.1 mph - N/A Rain Light Rain
5:55 PM 56.3 °F - 55.9 °F 99% 30.02 in 6.0 mi WNW 6.9 mph - 0.00 in Rain Light Rain
6:01 PM 55.4 °F - 55.4 °F 100% 30.01 in 5.0 mi NW 6.9 mph - N/A Rain Light Rain
6:17 PM 55.4 °F - 55.4 °F 100% 30.01 in 6.0 mi NW 6.9 mph - N/A Rain Light Rain
6:22 PM 55.4 °F - 55.4 °F 100% 30.01 in 6.0 mi NW 5.8 mph - N/A Rain Light Rain
6:26 PM 55.4 °F - 55.4 °F 100% 30.02 in 6.0 mi WNW 5.8 mph - N/A   Light Drizzle
6:29 PM 55.4 °F - 55.4 °F 100% 30.02 in 5.0 mi WNW 6.9 mph - N/A   Overcast
6:33 PM 55.4 °F - 55.4 °F 100% 30.01 in 5.0 mi NW 11.5 mph - N/A Rain Light Rain
6:40 PM 55.4 °F - 55.4 °F 100% 30.01 in 8.0 mi NNW 9.2 mph - N/A Rain Light Rain
6:44 PM 55.4 °F - 55.4 °F 100% 30.01 in 10.0 mi NNW 8.1 mph - N/A   Overcast
7:32 PM 53.6 °F - 53.6 °F 100% 30.03 in 10.0 mi NNW 5.8 mph - N/A   Overcast
7:55 PM 53.4 °F - 53.1 °F 99% 30.02 in 10.0 mi Calm Calm - N/A   Mostly Cloudy
8:33 PM 53.6 °F - 53.6 °F 100% 30.04 in 10.0 mi WNW 4.6 mph - N/A   Mostly Cloudy
8:55 PM 53.2 °F - 52.9 °F 99% 30.04 in 10.0 mi NW 4.6 mph - N/A   Overcast
9:34 PM 51.8 °F - 51.8 °F 100% 30.04 in 9.0 mi Calm Calm - N/A   Scattered Clouds
9:55 PM 51.8 °F - 51.4 °F 99% 30.04 in 4.0 mi Calm Calm - N/A   Clear
9:57 PM 51.8 °F - 51.8 °F 100% 30.04 in 1.0 mi Calm Calm - N/A   Clear
10:08 PM 51.8 °F - 51.8 °F 100% 30.04 in 2.5 mi Calm Calm - N/A   Clear
10:17 PM 50.0 °F - 50.0 °F 100% 30.04 in 0.8 mi Calm Calm - N/A   Clear
10:24 PM 50.0 °F - 50.0 °F 100% 30.04 in 0.5 mi Calm Calm - N/A Fog Fog
10:34 PM 50.0 °F - 50.0 °F 100% 30.05 in 0.5 mi Calm Calm - N/A Fog Fog
10:42 PM 50.0 °F - 50.0 °F 100% 30.05 in 0.8 mi Calm Calm - N/A   Mist
10:48 PM 50.0 °F - 50.0 °F 100% 30.05 in 0.8 mi WNW 3.5 mph - N/A   Mostly Cloudy
10:55 PM 50.7 °F - 50.4 °F 99% 30.05 in 1.0 mi NW 4.6 mph - N/A   Mostly Cloudy
10:57 PM 51.8 °F - 51.8 °F 100% 30.05 in 3.0 mi NNW 4.6 mph - N/A   Overcast
11:10 PM 51.8 °F - 51.8 °F 100% 30.04 in 1.0 mi WNW 4.6 mph - N/A   Overcast
11:13 PM 51.8 °F - 51.8 °F 100% 30.04 in 1.0 mi NW 4.6 mph - N/A   Overcast
11:17 PM 51.8 °F - 51.8 °F 100% 30.04 in 1.0 mi NW 4.6 mph - N/A   Overcast
11:22 PM 51.8 °F - 51.8 °F 100% 30.04 in 1.2 mi NNW 4.6 mph - N/A   Overcast
11:25 PM 51.8 °F - 51.8 °F 100% 30.04 in 1.5 mi NW 3.5 mph - N/A   Overcast
11:41 PM 51.8 °F - 51.8 °F 100% 30.04 in 1.2 mi West 3.5 mph - N/A   Overcast
11:55 PM 51.4 °F - 51.3 °F 99% 30.04 in 1.0 mi WNW 5.8 mph - N/A   Overcast